Regional Weather Roundup
Issued by NWS Jackson, KY

Home | Current Version | Previous Version | Text Only | Print | Product List | Glossary Off
Versions: 1 2 3 4 5 6 7 8 9 10 11 12 13 14 15 16 17 18 19 20 21 22 23 24 25 26 27 28 29 30 31 32 33 34 35 36 37 38 39 40 41 42 43 44 45 46 47 48 49 50

358
ASUS43 KJKL 180510
RWRJKL

EAST KENTUCKY HOURLY WEATHER ROUNDUP
NATIONAL WEATHER SERVICE JACKSON KY
1200 AM EST WED JAN 18 2017

NOTE: "FAIR" INDICATES FEW OR NO CLOUDS BELOW 12,000 FEET WITH
NO SIGNIFICANT WEATHER AND/OR OBSTRUCTIONS TO VISIBILITY.

* THESE REPORTS ARE NOT UNDER NWS QUALITY CONTROL AND MAY NOT
  REPORT WEATHER SUCH AS PRECIPITATION AND FOG.

KYZ079-080-083-085-087-088-110-112-115-119-120-180600
...EASTERN KENTUCKY...

CITY           SKY/WX    TMP DP  RH WIND       PRES   REMARKS
JACKSON        CLOUDY    51  45  79 W12G17    30.05R
LONDON         CLOUDY    52  45  77 W10       30.08R
SOMERSET*      CLOUDY    50  43  76 W7        30.12R
MONTICELLO*    CLOUDY    52  46  80 W14G22    30.13R
WILLIAMSBURG*  PTCLDY    54  52  94 NW5       30.09R
MIDDLESBORO*   MOCLDY    59  50  72 W15G24    30.05S
HARLAN APT*    CLOUDY    55  50  82 W10G16    30.06R
PIKE CO APT*     N/A     55  47  74 W6        30.02S
BIG SANDY APT* CLOUDY    55  47  77 NW8       30.03R
MOREHEAD APT*  CLOUDY    48  41  76 NW6       30.07S
ASHLAND*       CLOUDY    50  43  76 NW12G20   30.02S
$$

KYZ035-036-041-042-044-050-067-078-099-180600
...CENTRAL KENTUCKY...

CITY           SKY/WX    TMP DP  RH WIND       PRES   REMARKS
MT STERLING*   CLOUDY    46  43  87 W13       30.08S
FLEMING/MASON* CLOUDY    45  40  85 NW12G17   30.07S
DANVILLE*      CLOUDY    46  43  87 W8G16     30.11R
LEXINGTON      CLOUDY    46  40  79 W14G25    30.08S
FRANKFORT      CLOUDY    46  38  73 W8G22     30.08S
LOUISVILLE     CLOUDY    45  39  79 W9        30.11S
LEBANON*       CLOUDY    46  41  81 W12       30.12R
GLASGOW*       CLOUDY    46  41  81 W9        30.14S
BOWLING GREEN  CLOUDY    47  40  76 W7        30.16R
$$

KYZ091>093-OHZ055-061-077-WVZ005-015-034-035-042-180600
...SOUTHERN OHIO/WEST VIRGINIA...

CITY           SKY/WX    TMP DP  RH WIND       PRES   REMARKS
COVINGTON      DRIZZLE   44  41  89 W9        30.04F
COLUMBUS       DRIZZLE   47  42  83 W14       29.99R
DAYTON         CLOUDY    42  40  92 W15       30.01S
WILMINGTON     CLOUDY    43  42  97 W10       30.01S
HUNTINGTON     CLOUDY    52  43  71 W10G21    30.02R
CHARLESTON     MOCLDY    57  47  69 W8G17     29.98S
BECKLEY        CLOUDY    55  47  74 W13G25    29.98F
BLUEFIELD      LGT RAIN  53  52  96 NW14G22   30.00F FOG
LOGAN CO APT*    N/A     55  45  67 W16G23    30.00R
$$

VAZ002-007-008-TNZ017-027-036-066-071-180600
...SOUTHWEST VIRGINIA/EAST TENNESSEE...

CITY           SKY/WX    TMP DP  RH WIND       PRES   REMARKS
WISE*          CLOUDY    55  55 100 W14G20    30.04F
JONESVILLE*    CLOUDY    59  55  88 W9        30.06S
ABINGDON*      RAIN      61  60  97 W12       30.01F
BRISTOL        LGT RAIN  62  58  86 SW15G25   30.01F
MORRISTOWN*    CLOUDY    64  59  82 W16G22    30.02F
SEVIERVILLE*   CLOUDY    66  55  68 W9        30.03S
KNOXVILLE      CLOUDY    64  58  80 SW20G28   30.04F
LAFOLLETTE*    CLOUDY    59  50  72 VRB7G15   30.09S
OAK RIDGE      CLOUDY    60  56  86 W8        30.08R
CROSSVILLE     CLOUDY    52  50  93 W10       30.12R
NASHVILLE      CLOUDY    52  44  74 W7        30.15F
$$

...KEY TO REMARKS...
VSB - VISIBILITY IN MILES
WCI - WIND CHILL INDEX
HX  - HEAT INDEX

$$




USA.gov is the U.S. government's official web portal to all federal, state and local government web resources and services.